#timestamp,LO_Frequency,Hit,StdDev 
1564635615.0,286046990.5,N
1564635615.9,286046990.5,N
1564635635.8,286046994.8,N
1564635655.6,286046997.4,N
1564635675.5,286047000.8,N
1564635695.3,286047001.7,N
1564635715.2,286047004.1,N
1564635735.9,286047009.2,N
1564635755.7,286047010.3,N
1564635775.6,286047008.5,N
1564635795.4,286047006.3,N
1564635815.2,286047009.1,N
1564635835.1,286047007.1,N
1564635836.0,286047007.1,N
1564635855.8,286047005.2,N
1564635875.7,286047004.5,N
1564635895.5,286047009.2,N
1564635915.3,286047005.1,N
1564635935.2,286047004.0,N
1564635955.0,286047002.1,N
1564635955.9,286047002.1,N
1564635975.8,286047001.5,N
1564635995.6,286047003.6,N
1564636015.4,286047003.6,N
1564636035.3,286047003.8,N
1564636055.1,286047002.0,N
1564636075.8,286047003.9,N
1564636095.7,286047001.1,N
1564636115.5,286047002.2,N
1564636135.4,286047006.0,N
1564636155.2,286047005.4,N
1564636175.0,286047007.1,N
1564636175.9,286047007.1,N
1564636195.8,286047008.5,N
1564636215.6,286047010.2,Y
1564636235.5,286047006.3,P
1564636255.3,286047007.6,P
1564636275.1,286047003.6,P
1564636295.9,286047002.2,N
1564636315.7,286046999.9,N
1564636335.6,286047002.6,N
1564636355.4,286047001.5,N
1564636375.2,286047001.0,N
1564636395.1,286046998.2,N
1564636396.0,286046998.2,N
1564636415.8,286047000.7,N
1564636435.6,286047000.9,N
1564636455.5,286047001.0,N
1564636475.3,286046999.0,N
1564636495.2,286046997.3,N
1564636515.9,286046997.6,N
1564636535.7,286046996.3,N
1564636555.6,286046997.9,N
1564636575.4,286046997.5,N
1564636595.3,286046999.0,N
1564636615.1,286046999.0,N
1564636616.0,286046999.0,N
1564636635.8,286046998.2,N
1564636655.7,286047002.5,N
1564636675.5,286047003.5,N
1564636695.3,286047003.3,N
1564636715.2,286047001.5,N
1564636735.0,286046999.8,N
1564636735.9,286046999.8,N
1564636755.8,286047004.2,N
1564636775.6,286047001.5,N
1564636795.4,286047000.5,N
1564636815.3,286047000.3,N
1564636835.1,286046998.4,N
1564636855.9,286046999.6,N
1564636875.7,286046995.6,N
1564636895.5,286046993.4,Y
1564636915.4,286046995.6,P
1564636935.2,286046993.6,P
1564636955.0,286046992.2,P
1564636955.9,286046992.2,N
1564636975.8,286046988.8,Y
1564636995.6,286046991.2,P
1564637015.5,286046987.0,P
1564637035.3,286046983.0,P
1564637055.1,286046979.4,Y
1564637075.9,286046987.6,P
1564637095.7,286046983.9,P
1564637115.5,286046980.7,P
1564637135.4,286046979.9,Y
1564637155.2,286046992.6,P
1564637175.1,286046988.8,P
1564637176.0,286046988.8,P
1564637195.8,286046989.8,Y
1564637215.6,286046998.4,P
1564637235.5,286046997.4,N
1564637255.3,286046996.1,N
1564637275.2,286046994.8,N
1564637295.9,286046991.0,N
1564637315.7,286046991.5,N
1564637335.6,286046991.0,N
1564637355.4,286046991.4,N
1564637375.2,286046990.3,Y
1564637395.1,286046999.7,P
1564637396.0,286046999.7,N
1564637415.8,286047003.5,N
1564637435.7,286047005.3,N
1564637455.5,286047005.7,N
1564637475.3,286047004.3,N
1564637495.2,286047002.4,N
1564637515.0,286046999.2,N
1564637515.9,286046999.2,N
1564637535.7,286046999.0,N
1564637555.6,286046999.4,N
1564637575.4,286046999.5,N
1564637595.3,286046998.5,N
1564637615.1,286046996.7,N
1564637635.8,286046998.8,N
1564637655.7,286046998.1,N
1564637675.5,286046996.2,N
1564637695.3,286046992.9,N
1564637715.2,286046991.0,N
1564637735.0,286046986.5,Y
1564637735.9,286046986.5,P
1564637755.8,286046982.4,N
1564637775.6,286046984.6,N
1564637795.4,286046986.3,N
1564637815.3,286046982.4,Y
1564637835.1,286046992.6,P
1564637855.9,286046987.1,P
1564637875.7,286046989.8,P
1564637895.5,286046988.1,Y
1564637915.4,286046996.4,P
1564637935.2,286046992.3,N
1564637955.1,286046991.5,N
1564637956.0,286046991.5,Y
1564637975.8,286047000.9,P
1564637995.6,286046996.9,N
1564638015.5,286046996.2,N
1564638035.3,286046992.2,N
1564638055.2,286046991.5,N
1564638075.9,286046992.1,N
1564638095.7,286046994.6,N
1564638115.6,286046990.4,Y
1564638135.4,286046995.0,P
1564638155.3,286046999.8,N
1564638175.1,286047001.4,N
1564638176.0,286047001.4,N
1564638195.8,286046999.7,N
1564638215.7,286047002.5,N
1564638235.5,286047000.0,N
1564638255.3,286047000.5,N
1564638275.2,286047001.9,N
1564638295.0,286047001.3,N
1564638295.9,286047001.3,N
1564638315.8,286047006.2,N
1564638335.6,286047009.6,Y
1564638355.4,286047011.5,P
1564638375.3,286047009.9,N
1564638395.1,286047006.2,N
1564638415.9,286047007.4,N
1564638435.7,286047007.5,N
1564638455.5,286047003.8,N
1564638475.4,286047002.6,N
1564638495.2,286047000.2,N
1564638515.0,286047000.3,N
1564638515.9,286047000.3,N
1564638535.8,286046996.9,N
1564638555.6,286046998.3,N
1564638575.5,286046995.7,N
1564638595.3,286046992.9,N
1564638615.1,286046986.9,N
1564638635.9,286046983.7,N
1564638655.7,286046982.8,N
1564638675.5,286046979.0,N
1564638695.4,286046980.3,N
1564638715.2,286046977.0,N
1564638735.1,286046971.3,N
1564638736.0,286046971.3,N
1564638755.8,286046971.8,N
1564638775.6,286046970.0,N
1564638795.5,286046967.7,N
1564638815.3,286046968.0,N
1564638835.1,286046968.4,N
1564638855.9,286046969.4,N
1564638875.7,286046973.3,N
1564638895.6,286046971.2,N
1564638915.4,286046970.4,N
1564638935.2,286046967.0,N
1564638955.1,286046966.6,N
1564638956.0,286046966.6,N
1564638975.8,286046957.3,Y
1564638995.6,286046975.1,P
1564639015.5,286046973.6,P
1564639035.3,286046969.6,P
1564639055.2,286046973.8,Y
1564639075.9,286046995.9,P
1564639095.7,286046990.9,N
1564639115.6,286046992.6,N
1564639135.4,286046995.0,N
1564639155.3,286046996.3,N
1564639175.1,286046996.4,N
1564639176.0,286046996.4,N
1564639195.8,286046994.2,N
